FW5754 Weather Reports


Display with metric or nautical units.
time (UTC)temp
F
wind
direction
speed
MPH
gust
MPH
rain 1hr
in
rain 24hr
in
rain mn
in
humidity
%
barometer
mb
20260901213052 67 159 4.0 16.0 0.00 0.31 0.31 90 1016.7
20260901212535 67 96 4.0 16.0 0.00 0.31 0.31 90 1016.6
20260901212034 67 95 5.0 16.0 0.00 0.31 0.31 90 1016.6
20260901211547 68 102 6.0 15.0 0.00 0.31 0.31 90 1016.5
20260901211037 68 98 5.0 15.0 0.00 0.31 0.31 90 1016.5
20260901210534 68 100 3.0 15.0 0.00 0.31 0.31 89 1016.4
20260901210045 68 94 4.0 13.0 0.00 0.31 0.31 88 1016.3
20260901205535 68 81 4.0 13.0 0.00 0.31 0.31 87 1016.2
20260901205039 69 113 4.0 12.0 0.00 0.31 0.31 87 1016.2
20260901204555 69 77 4.0 11.0 0.00 0.31 0.31 88 1016.1
20260901204035 69 90 3.0 11.0 0.00 0.31 0.31 89 1016.1
20260901203534 69 92 1.0 9.0 0.00 0.31 0.31 90 1016.1
20260901203056 69 91 1.0 9.0 0.00 0.31 0.31 90 1015.9
20260901202534 69 90 2.0 9.0 0.00 0.31 0.31 90 1015.9
20260901202033 69 92 3.0 9.0 0.00 0.31 0.31 89 1015.9
20260901201548 69 91 3.0 9.0 0.00 0.31 0.31 90 1015.8
20260901201035 69 93 1.0 5.0 0.00 0.31 0.31 90 1015.8
20260901200533 70 93 1.0 7.0 0.00 0.31 0.31 90 1015.9
20260901200046 70 93 2.0 8.0 0.00 0.31 0.31 90 1015.9
20260901195534 70 93 2.0 8.0 0.00 0.31 0.31 90 1015.8
20260901195035 70 90 3.0 9.0 0.00 0.31 0.31 90 1015.8
20260901194557 70 107 3.0 9.0 0.00 0.31 0.31 90 1015.7
20260901194035 70 105 1.0 7.0 0.00 0.31 0.31 90 1015.7
20260901193534 71 0 2.0 7.0 0.00 0.31 0.31 90 1015.7
20260901193052 71 105 2.0 7.0 0.00 0.31 0.31 91 1015.6
20260901192533 71 104 2.0 6.0 0.00 0.31 0.31 91 1015.6
20260901192035 71 104 0.0 6.0 0.00 0.31 0.31 92 1015.6
20260901191558 70 0 0.0 6.0 0.00 0.31 0.31 91 1015.6
20260901191035 70 104 1.0 6.0 0.00 0.31 0.31 91 1015.6
20260901190533 70 104 1.0 6.0 0.00 0.31 0.31 91 1015.5
20260901190055 70 105 3.0 7.0 0.00 0.31 0.31 91 1015.4
20260901185535 70 103 2.0 8.0 0.00 0.31 0.31 90 1015.4
20260901185031 71 112 3.0 8.0 0.00 0.31 0.31 89 1015.5
20260901184550 71 0 1.0 8.0 0.00 0.31 0.31 89 1015.5
20260901184034 72 123 1.0 7.0 0.00 0.31 0.31 89 1015.7
20260901183537 73 138 0.0 7.0 0.00 0.31 0.31 90 1015.7
20260901183049 73 0 0.0 0.0 0.00 0.31 0.31 91 1015.7
20260901182531 73 0 0.0 5.0 0.00 0.31 0.31 91 1015.6
20260901182033 73 0 1.0 5.0 0.00 0.31 0.31 91 1015.7
20260901181552 73 138 2.0 5.0 0.00 0.31 0.31 91 1015.8
20260901181031 72 0 1.0 5.0 0.00 0.31 0.31 92 1015.6
20260901180532 72 138 2.0 7.0 0.00 0.31 0.31 91 1015.7
20260901180041 72 0 2.0 7.0 0.00 0.31 0.31 92 1015.9
20260901175534 72 138 2.0 5.0 0.00 0.31 0.31 92 1015.8
20260901175031 72 138 0.0 3.0 0.00 0.31 0.31 93 1015.8
20260901174551 71 138 1.0 3.0 0.00 0.31 0.31 92 1015.9
20260901174033 71 0 0.0 3.0 0.00 0.31 0.31 92 1015.9
20260901173534 71 138 0.0 4.0 0.01 0.31 0.31 92 1016.1
20260901173058 71 0 0.0 7.0 0.01 0.31 0.31 92 1016.0
20260901172532 71 138 1.0 7.0 0.01 0.31 0.31 92 1016.0
20260901172034 72 138 1.0 7.0 0.01 0.31 0.31 92 1016.1
20260901171601 72 138 1.0 7.0 0.01 0.31 0.31 92 1016.1
20260901171037 71 138 2.0 7.0 0.01 0.31 0.31 92 1015.9
20260901170535 71 138 0.0 5.0 0.01 0.31 0.31 92 1015.8
20260901170048 71 0 2.0 9.0 0.01 0.31 0.31 92 1015.8
20260901165531 71 0 2.0 9.0 0.01 0.31 0.31 92 1015.9
20260901165032 71 138 3.0 9.0 0.01 0.31 0.31 92 1016.0
20260901164547 71 138 3.0 8.0 0.01 0.31 0.31 92 1016.1
20260901164031 71 138 2.0 7.0 0.00 0.30 0.30 92 1016.1
20260901163536 71 138 2.0 8.0 0.00 0.30 0.30 92 1016.2
20260901163044 71 138 2.0 8.0 0.00 0.30 0.30 92 1016.3
20260901162531 71 138 2.0 8.0 0.00 0.30 0.30 92 1016.5
20260901162035 71 137 2.0 8.0 0.00 0.30 0.30 93 1016.5
20260901161607 71 137 2.0 8.0 0.00 0.30 0.30 93 1016.4
20260901161038 71 136 3.0 8.0 0.00 0.30 0.30 92 1016.3
20260901160534 71 136 2.0 7.0 0.00 0.30 0.30 93 1016.4
20260901160056 71 136 1.0 6.0 0.00 0.30 0.30 94 1016.6
20260901155533 71 136 2.0 7.0 0.00 0.30 0.30 93 1016.7
20260901155034 70 136 0.0 7.0 0.00 0.30 0.30 93 1016.9
20260901154555 70 136 3.0 8.0 0.00 0.30 0.30 93 1016.7
20260901154036 70 136 3.0 8.0 0.01 0.30 0.30 93 1016.5
20260901153535 71 134 1.0 7.0 0.03 0.30 0.30 93 1016.4
20260901153051 71 134 3.0 7.0 0.07 0.30 0.30 93 1016.5
20260901152531 71 134 2.0 6.0 0.07 0.30 0.30 93 1016.6
20260901152032 71 134 2.0 6.0 0.09 0.30 0.30 94 1016.6
20260901151553 71 134 2.0 7.0 0.10 0.30 0.30 94 1016.6
20260901151033 70 134 3.0 7.0 0.10 0.30 0.30 94 1016.6
20260901150528 70 134 1.0 7.0 0.10 0.30 0.30 94 1016.8
20260901150046 70 134 3.0 7.0 0.10 0.30 0.30 93 1017.0
20260901145531 70 134 2.0 4.0 0.10 0.30 0.30 94 1017.0
20260901145029 70 0 0.0 6.0 0.10 0.30 0.30 93 1017.2
20260901144550 70 134 0.0 6.0 0.10 0.30 0.30 93 1017.2
20260901144032 70 134 1.0 8.0 0.09 0.29 0.29 93 1017.2
20260901143531 70 134 2.0 8.0 0.06 0.26 0.26 93 1017.3
20260901143048 70 134 0.0 7.0 0.03 0.23 0.23 93 1017.2
20260901142532 70 134 2.0 7.0 0.03 0.23 0.23 93 1017.1
20260901142031 70 134 2.0 7.0 0.01 0.21 0.21 93 1017.2
20260901141549 70 0 0.0 6.0 0.00 0.20 0.20 93 1017.2
20260901141031 70 134 2.0 6.0 0.00 0.20 0.20 93 1017.1
20260901140532 70 134 1.0 6.0 0.00 0.20 0.20 93 1017.1
20260901140047 70 134 2.0 8.0 0.00 0.20 0.20 93 1017.0
20260901135531 70 134 3.0 8.0 0.00 0.20 0.20 93 1016.8
20260901135031 70 134 2.0 9.0 0.00 0.20 0.20 93 1016.8
20260901134547 70 134 2.0 9.0 0.00 0.20 0.20 93 1016.7
20260901134032 70 132 2.0 8.0 0.00 0.20 0.20 93 1016.7
20260901133530 70 132 3.0 8.0 0.00 0.20 0.20 93 1016.7
20260901133045 70 132 2.0 7.0 0.00 0.20 0.20 93 1016.7
20260901132533 69 132 2.0 7.0 0.00 0.20 0.20 93 1016.8
20260901132030 70 132 2.0 7.0 0.00 0.20 0.20 93 1016.8
20260901131548 70 0 1.0 4.0 0.00 0.20 0.20 93 1016.8
20260901131033 69 132 1.0 4.0 0.00 0.20 0.20 93 1017.0
20260901130531 69 132 1.0 6.0 0.00 0.20 0.20 94 1017.0
20260901130057 69 132 1.0 6.0 0.00 0.20 0.20 93 1017.0
20260901125530 69 132 1.0 6.0 0.00 0.20 0.20 93 1017.1
20260901125031 69 132 1.0 8.0 0.00 0.20 0.20 94 1017.1
20260901124546 69 132 2.0 8.0 0.00 0.20 0.20 93 1017.2
20260901124029 69 132 1.0 7.0 0.00 0.20 0.20 94 1017.2
20260901123531 69 132 1.0 7.0 0.00 0.20 0.20 93 1017.1
20260901123046 69 132 3.0 7.0 0.00 0.20 0.20 94 1017.1
20260901122531 69 0 2.0 6.0 0.00 0.20 0.20 93 1017.2
20260901122031 69 132 3.0 8.0 0.00 0.20 0.20 94 1017.1
20260901121548 69 132 3.0 8.0 0.00 0.20 0.20 94 1017.0
20260901121034 69 132 2.0 6.0 0.00 0.20 0.20 93 1017.1
20260901120532 69 0 1.0 6.0 0.00 0.20 0.20 93 1017.2
20260901120045 69 132 3.0 6.0 0.00 0.20 0.20 93 1017.2
20260901115532 68 132 1.0 6.0 0.00 0.20 0.20 93 1017.3
20260901115033 68 132 1.0 8.0 0.00 0.20 0.20 93 1017.3
20260901114608 68 132 2.0 8.0 0.00 0.20 0.20 93 1017.3
20260901114032 68 132 2.0 8.0 0.00 0.20 0.20 93 1017.2
20260901113531 68 132 2.0 8.0 0.00 0.20 0.20 93 1017.2
20260901113050 68 132 3.0 8.0 0.00 0.20 0.20 93 1017.1
20260901112535 68 132 2.0 6.0 0.00 0.20 0.20 93 1017.2
20260901112034 68 132 2.0 4.0 0.00 0.20 0.20 93 1017.2
20260901111550 68 132 2.0 7.0 0.00 0.20 0.20 93 1017.1
20260901111035 68 132 1.0 7.0 0.00 0.20 0.20 93 1017.2
20260901110533 68 132 2.0 7.0 0.00 0.20 0.20 93 1017.3
20260901110047 68 132 2.0 6.0 0.00 0.20 0.20 93 1017.2
20260901105534 68 132 2.0 6.0 0.00 0.20 0.20 93 1017.2
20260901105033 68 132 2.0 7.0 0.00 0.20 0.20 93 1017.2
20260901104550 68 132 2.0 7.0 0.01 0.20 0.20 93 1017.3
20260901104031 68 0 0.0 6.0 0.01 0.20 0.20 93 1017.2
20260901103532 68 132 1.0 6.0 0.01 0.20 0.20 93 1017.1
20260901103048 68 132 3.0 5.0 0.01 0.20 0.20 93 1016.9
20260901102535 68 132 1.0 4.0 0.02 0.20 0.20 93 1017.0
20260901102031 68 132 2.0 4.0 0.02 0.20 0.20 93 1017.1
20260901101550 68 0 1.0 3.0 0.02 0.20 0.20 93 1017.2
20260901101033 68 132 1.0 3.0 0.03 0.20 0.20 93 1017.1
20260901100533 68 132 1.0 3.0 0.03 0.20 0.20 93 1017.0
20260901100049 68 132 1.0 3.0 0.03 0.20 0.20 93 1017.0
20260901095530 68 132 1.0 4.0 0.03 0.20 0.20 93 1017.0
20260901095031 68 132 1.0 4.0 0.03 0.20 0.20 93 1017.0
20260901094546 68 0 0.0 0.0 0.02 0.19 0.19 93 1016.9
20260901094032 68 0 0.0 0.0 0.02 0.19 0.19 93 1017.0
20260901093531 68 0 0.0 0.0 0.02 0.19 0.19 92 1017.1
20260901093052 68 0 0.0 0.0 0.03 0.19 0.19 92 1017.1
20260901092534 68 0 0.0 0.0 0.03 0.18 0.18 92 1017.1
20260901092034 68 0 0.0 3.0 0.05 0.18 0.18 92 1017.3
20260901091546 68 0 0.0 3.0 0.06 0.18 0.18 92 1017.3
20260901091030 68 0 0.0 0.0 0.06 0.17 0.17 92 1017.3
20260901090533 68 0 0.0 0.0 0.07 0.17 0.17 92 1017.4
20260901090056 68 0 0.0 0.0 0.08 0.17 0.17 92 1017.4
20260901085535 68 0 0.0 0.0 0.09 0.17 0.17 92 1017.5
20260901085031 68 0 0.0 0.0 0.10 0.17 0.17 92 1017.5
20260901084551 68 0 0.0 0.0 0.11 0.17 0.17 92 1017.6
20260901084031 68 0 0.0 2.0 0.12 0.17 0.17 92 1017.5
20260901083532 68 0 0.0 2.0 0.13 0.17 0.17 92 1017.5
20260901083047 68 132 1.0 2.0 0.12 0.16 0.16 91 1017.6
20260901082538 68 0 0.0 0.0 0.13 0.15 0.15 91 1017.7
20260901082030 68 0 0.0 0.0 0.11 0.13 0.13 91 1017.7
20260901081545 68 0 0.0 0.0 0.11 0.12 0.12 91 1017.7
20260901081033 68 0 0.0 0.0 0.10 0.11 0.11 91 1017.7
20260901080531 69 0 0.0 0.0 0.10 0.10 0.10 91 1017.8
20260901080048 69 0 0.0 2.0 0.09 0.09 0.09 90 1017.7
20260901075532 69 0 0.0 3.0 0.08 0.08 0.08 90 1017.7
20260901075033 69 132 1.0 3.0 0.07 0.07 0.07 90 1017.6
20260901074554 70 132 0.0 4.0 0.06 0.06 0.06 91 1017.8
20260901074036 70 132 2.0 4.0 0.05 0.05 0.05 91 1017.6
20260901073534 70 132 1.0 3.0 0.04 0.04 0.04 91 1017.6
20260901073058 70 132 1.0 3.0 0.03 0.03 0.03 90 1017.7
20260901072534 70 132 1.0 3.0 0.02 0.02 0.02 90 1017.7
20260901072031 70 0 0.0 3.0 0.02 0.02 0.02 90 1017.8
20260901071545 70 132 0.0 3.0 0.01 0.01 0.01 89 1017.9
20260901071030 70 132 1.0 3.0 0.01 0.01 0.01 89 1017.8
20260901070530 70 132 0.0 3.0 0.00 0.00 0.00 89 1017.9
20260901070054 70 0 0.0 3.0 0.00 0.00 0.00 89 1017.9
20260901065531 70 0 0.0 0.0 0.00 0.00 0.00 89 1017.9
20260901065033 70 0 0.0 0.0 0.00 0.00 0.00 89 1018.0
20260901064551 70 0 0.0 0.0 0.00 0.00 0.00 89 1018.0
20260901064034 70 0 0.0 0.0 0.00 0.00 0.00 89 1018.0
20260901063533 70 0 0.0 0.0 0.00 0.00 0.00 89 1018.0
20260901063044 70 0 0.0 0.0 0.00 0.00 0.00 89 1018.1
20260901062533 70 0 0.0 0.0 0.00 0.00 0.00 89 1018.1
20260901062033 70 0 0.0 0.0 0.00 0.00 0.00 89 1018.0
20260901061559 70 0 0.0 0.0 0.00 0.00 0.00 89 1018.1
20260901061031 70 0 0.0 0.0 0.00 0.00 0.00 89 1018.3
20260901060531 70 0 0.0 0.0 0.00 0.00 0.00 89 1018.4
20260901060046 70 0 0.0 0.0 0.00 0.00 0.00 89 1018.4
20260901055531 70 0 0.0 0.0 0.00 0.00 0.00 89 1018.4
20260901055034 70 0 0.0 0.0 0.00 0.00 0.00 89 1018.3
20260901054553 70 0 0.0 0.0 0.00 0.00 0.00 89 1018.3
20260901054034 70 0 0.0 0.0 0.00 0.00 0.00 89 1018.3
20260901053534 70 0 0.0 0.0 0.00 0.00 0.00 89 1018.4
20260901053053 70 0 0.0 0.0 0.00 0.00 0.00 89 1018.4
20260901052530 70 0 0.0 0.0 0.00 0.00 0.00 89 1018.6
20260901052031 70 0 0.0 0.0 0.00 0.00 0.00 88 1018.5
20260901051544 70 0 0.0 0.0 0.00 0.00 0.00 88 1018.5
20260901051031 70 0 0.0 0.0 0.00 0.00 0.00 88 1018.5
20260901050531 70 0 0.0 0.0 0.00 0.00 0.00 87 1018.6
20260901050054 70 0 0.0 0.0 0.00 0.00 0.00 87 1018.7
20260901045533 70 0 0.0 0.0 0.00 0.00 0.00 87 1018.8
20260901045035 70 0 0.0 0.0 0.00 0.00 0.00 87 1018.7
20260901044556 70 0 0.0 0.0 0.00 0.00 0.00 86 1018.6
20260901044033 70 0 0.0 0.0 0.00 0.00 0.00 86 1018.7
20260901043534 70 0 0.0 0.0 0.00 0.00 0.00 86 1018.7
20260901043048 70 0 0.0 0.0 0.00 0.00 0.00 85 1018.6
20260901042535 70 0 0.0 0.0 0.00 0.00 0.00 85 1018.7
20260901042030 70 0 0.0 0.0 0.00 0.00 0.00 85 1018.7
20260901041548 70 0 0.0 0.0 0.00 0.00 0.00 85 1018.7
20260901041030 70 0 0.0 0.0 0.00 0.00 0.00 84 1018.7
20260901040531 70 0 0.0 0.0 0.00 0.00 0.00 84 1018.8
20260901040054 70 0 0.0 0.0 0.00 0.00 0.00 83 1018.8
20260901035532 70 0 0.0 0.0 0.00 0.00 0.00 83 1018.9
20260901035033 70 0 0.0 0.0 0.00 0.00 0.00 82 1019.0
20260901034548 70 0 0.0 0.0 0.00 0.00 0.00 82 1019.0
20260901034033 70 0 0.0 0.0 0.00 0.00 0.00 82 1019.0
20260901033533 70 0 0.0 2.0 0.00 0.00 0.00 81 1019.0
20260901033057 70 0 0.0 2.0 0.00 0.00 0.00 81 1019.1
20260901032534 70 132 0.0 3.0 0.00 0.00 0.00 81 1019.1
20260901032034 70 132 0.0 3.0 0.00 0.00 0.00 81 1019.1
20260901031545 70 132 0.0 4.0 0.00 0.00 0.00 81 1019.1
20260901031030 70 0 0.0 4.0 0.00 0.00 0.00 81 1018.9
20260901030531 70 132 1.0 4.0 0.00 0.00 0.00 81 1018.8
20260901030058 70 132 1.0 3.0 0.00 0.00 0.00 81 1018.9
20260901025531 70 0 0.0 4.0 0.00 0.01 0.00 81 1018.9
20260901025030 70 0 1.0 6.0 0.00 0.01 0.00 81 1018.9
20260901024549 70 132 1.0 6.0 0.00 0.01 0.00 80 1018.9
20260901024030 70 132 0.0 4.0 0.00 0.01 0.00 80 1019.1
20260901023534 70 0 0.0 4.0 0.00 0.01 0.00 80 1019.0
20260901023050 70 132 1.0 4.0 0.00 0.01 0.00 80 1019.1
20260901022532 70 0 0.0 6.0 0.00 0.01 0.00 80 1019.2
20260901022033 70 132 1.0 6.0 0.00 0.01 0.00 80 1019.2
20260901021603 70 132 1.0 4.0 0.00 0.01 0.00 79 1019.2
20260901021031 70 132 0.0 3.0 0.00 0.01 0.00 79 1019.3
20260901020531 70 132 0.0 3.0 0.00 0.01 0.00 79 1019.3
20260901020045 70 132 0.0 0.0 0.00 0.01 0.00 80 1019.3
20260901015531 70 0 0.0 0.0 0.00 0.02 0.00 80 1019.3
20260901015033 70 0 0.0 2.0 0.00 0.02 0.00 79 1019.4
20260901014550 70 0 0.0 3.0 0.00 0.02 0.00 79 1019.4
20260901014031 70 132 0.0 4.0 0.00 0.02 0.00 79 1019.4
20260901013534 70 0 1.0 6.0 0.00 0.02 0.00 79 1019.4
20260901013053 70 132 0.0 6.0 0.00 0.02 0.00 79 1019.4
20260901012531 70 0 2.0 6.0 0.00 0.02 0.00 79 1019.4
20260901012031 70 0 0.0 4.0 0.00 0.02 0.00 79 1019.4
20260901011607 70 132 2.0 4.0 0.00 0.02 0.00 79 1019.6
20260901011031 70 132 0.0 6.0 0.00 0.02 0.00 79 1019.4
20260901010530 70 132 1.0 8.0 0.00 0.02 0.00 79 1019.4
20260901010111 70 132 1.0 8.0 0.00 0.02 0.00 79 1019.3
20260901005530 70 132 0.0 7.0 0.00 0.02 0.00 79 1019.3
20260901005034 70 132 0.0 8.0 0.00 0.02 0.00 79 1019.2
20260901004551 70 132 2.0 8.0 0.00 0.02 0.00 79 1019.3
20260901004031 70 0 2.0 7.0 0.00 0.02 0.00 79 1019.2
20260901003532 70 0 1.0 7.0 0.00 0.02 0.00 79 1019.1
20260901003050 70 132 3.0 7.0 0.00 0.02 0.00 79 1019.0
20260901002531 70 132 2.0 6.0 0.00 0.02 0.00 80 1019.1
20260901002031 70 132 0.0 3.0 0.00 0.02 0.00 79 1019.2
20260901001545 70 0 1.0 8.0 0.00 0.02 0.00 80 1019.2
20260901001031 70 0 2.0 8.0 0.00 0.02 0.00 79 1019.2
20260901000531 70 0 0.0 7.0 0.00 0.02 0.00 80 1019.2
20260901000045 69 132 2.0 7.0 0.00 0.02 0.00 80 1019.2
20260831235532 69 132 1.0 6.0 0.00 0.02 0.00 80 1019.2
20260831235031 69 0 2.0 5.0 0.00 0.02 0.00 80 1019.3
20260831234556 69 132 1.0 3.0 0.00 0.02 0.00 80 1019.3
20260831234031 69 0 0.0 6.0 0.00 0.02 0.00 80 1019.4
20260831233530 70 0 0.0 6.0 0.00 0.02 0.00 79 1019.5
20260831233048 70 132 1.0 3.0 0.00 0.02 0.00 79 1019.5
20260831232530 70 0 0.0 3.0 0.00 0.02 0.00 79 1019.7
20260831232030 70 132 0.0 3.0 0.00 0.02 0.00 78 1019.7
20260831231546 70 132 0.0 4.0 0.00 0.02 0.00 78 1019.6
20260831231031 70 132 0.0 4.0 0.00 0.02 0.00 78 1019.5
20260831230531 70 132 1.0 4.0 0.00 0.02 0.00 78 1019.6
20260831230044 70 132 1.0 4.0 0.00 0.02 0.00 77 1019.6
20260831225531 70 132 1.0 6.0 0.00 0.02 0.00 77 1019.5
20260831225031 70 132 2.0 6.0 0.00 0.02 0.00 77 1019.5
20260831224550 70 132 2.0 5.0 0.00 0.02 0.00 77 1019.5
20260831224031 70 132 2.0 4.0 0.00 0.02 0.00 76 1019.6
20260831223531 70 132 2.0 6.0 0.00 0.02 0.00 76 1019.5
20260831223051 70 132 2.0 6.0 0.00 0.02 0.00 75 1019.5
20260831222531 70 132 2.0 4.0 0.00 0.02 0.00 76 1019.7
20260831222030 70 132 2.0 7.0 0.00 0.02 0.00 75 1019.8
20260831221601 71 132 2.0 7.0 0.00 0.02 0.00 74 1019.8
20260831221030 71 0 1.0 7.0 0.00 0.02 0.00 74 1019.8
20260831220530 71 132 2.0 7.0 0.00 0.02 0.00 74 1019.7
20260831220052 71 132 1.0 7.0 0.00 0.02 0.00 73 1019.8
20260831215531 71 132 1.0 6.0 0.00 0.02 0.00 73 1019.9
20260831215031 71 132 2.0 7.0 0.00 0.02 0.00 72 1019.7
20260831214554 71 132 2.0 7.0 0.00 0.02 0.00 71 1019.7
20260831214030 71 132 3.0 8.0 0.00 0.02 0.00 71 1019.8
20260831213532 71 132 3.0 8.0 0.00 0.02 0.00 70 1019.8